Burnet, TX

6:41 PM CDT on April 21, 2018 (GMT -0500)
Burnet Municipal-Craddock

Weather History for KBMQ - January, 2014

Change the Weather History Date:

Wednesday, January 8, 2014

  Actual Average Record
Temperature  
Mean Temperature 45 °F -  
Max Temperature 53 °F 57 °F 82 °F (2006)
Min Temperature 37 °F 37 °F 19 °F (2015)
Degree Days  
Heating Degree Days 20    
Moisture  
Dew Point 44 °F    
Average Humidity 92    
Maximum Humidity 97    
Minimum Humidity 60    
Precipitation  
Precipitation 0.00 in - - ()
Sea Level Pressure  
Sea Level Pressure 30.17 in    
Wind  
Wind Speed 7 mph (SSE)    
Max Wind Speed 14 mph    
Max Gust Speed 20 mph    
Visibility 6 miles    
Events      
Averages and records for this station are not official NWS values.
T = Trace of Precipitation, MM = Missing Value Source: NWS Daily Summary

Daily Weather History Graph

Daily Weather History Graph

Search for Another Location

Airport or City:

Astronomy

Jan. 08, 2014 Rise Set
Actual Time 7:31 AM CST 5:48 PM CST
Civil Twilight 7:05 AM CST 6:14 PM CST
Nautical Twilight 6:35 AM CST 6:44 PM CST
Astronomical Twilight 6:06 AM CST 7:13 PM CST
Moon 12:29 PM CST (1/8) 12:52 AM CST (1/8)
Length of Visible Light 11h 09m
Length of Day
10h 16m
First Quarter, 56% of the Moon is Illuminated
Jan 8
First Quarter
Jan 15
Full
Jan 23
Last Quarter
Jan 30
New
Feb 6
First Quarter

Hourly Weather History & Observations

Time (CST) Temp. Windchill Dew Point Humidity Pressure Visibility Wind Dir Wind Speed Gust Speed Precip Events Conditions
12:53 AM 39.0 °F 31.0 °F 26.1 °F 60% 30.29 in 10.0 mi South 13.8 mph 19.6 mph N/A   Overcast
1:53 AM 39.0 °F 32.8 °F 30.9 °F 73% 30.27 in 10.0 mi South 9.2 mph 17.3 mph N/A   Overcast
2:28 AM 37.9 °F 31.5 °F 34.0 °F 86% 30.27 in 8.0 mi South 9.2 mph - N/A   Overcast
2:53 AM 37.0 °F 32.4 °F 34.0 °F 89% 30.26 in 7.0 mi South 5.8 mph - N/A   Overcast
3:24 AM 37.0 °F 32.4 °F 35.1 °F 93% 30.24 in 5.0 mi South 5.8 mph - N/A   Overcast
3:53 AM 37.0 °F 32.4 °F 35.1 °F 93% 30.24 in 5.0 mi South 5.8 mph - N/A   Overcast
4:53 AM 37.0 °F 32.4 °F 35.1 °F 93% 30.23 in 3.0 mi South 5.8 mph - N/A   Overcast
5:35 AM 37.0 °F 33.3 °F 36.0 °F 96% 30.21 in 2.5 mi SSE 4.6 mph - N/A   Overcast
5:44 AM 37.0 °F 34.5 °F 36.0 °F 96% 30.20 in 3.0 mi SSE 3.5 mph - N/A   Overcast
5:53 AM 37.0 °F 32.4 °F 36.0 °F 96% 30.21 in 4.0 mi South 5.8 mph - N/A   Overcast
6:53 AM 37.0 °F 33.3 °F 36.0 °F 96% 30.20 in 4.0 mi SE 4.6 mph - 0.00 in   Overcast
7:53 AM 37.9 °F 34.4 °F 37.0 °F 97% 30.22 in 5.0 mi South 4.6 mph - N/A   Overcast
8:35 AM 39.0 °F 36.8 °F 37.9 °F 96% 30.22 in 1.8 mi South 3.5 mph - N/A   Overcast
8:53 AM 39.0 °F 35.7 °F 37.9 °F 96% 30.24 in 2.5 mi SSE 4.6 mph - 0.00 in   Overcast
9:11 AM 39.0 °F - 37.9 °F 96% 30.23 in 1.5 mi Calm Calm - N/A   Overcast
9:27 AM 39.9 °F 35.1 °F 39.0 °F 97% 30.23 in 3.0 mi SSE 6.9 mph - N/A   Overcast
9:53 AM 41.0 °F 37.1 °F 39.9 °F 96% 30.24 in 5.0 mi SSE 5.8 mph - N/A   Overcast
10:53 AM 43.0 °F 38.8 °F 42.1 °F 97% 30.23 in 5.0 mi South 6.9 mph - N/A   Overcast
11:53 AM 45.0 °F 40.1 °F 43.0 °F 93% 30.19 in 6.0 mi South 9.2 mph - N/A   Overcast
12:53 PM 46.9 °F - 45.0 °F 93% 30.14 in 5.0 mi South 8.1 mph - N/A   Overcast
1:53 PM 48.9 °F - 46.9 °F 93% 30.12 in 5.0 mi SSE 6.9 mph - N/A   Overcast
2:17 PM 50.0 °F - 46.9 °F 89% 30.12 in 9.0 mi SSE 5.8 mph - N/A   Overcast
2:25 PM 50.0 °F - 48.0 °F 93% 30.12 in 9.0 mi SSE 4.6 mph - N/A   Overcast
2:53 PM 52.0 °F - 48.0 °F 86% 30.11 in 10.0 mi SSE 6.9 mph - N/A   Overcast
3:53 PM 53.1 °F - 48.9 °F 86% 30.10 in 10.0 mi South 5.8 mph - N/A   Overcast
4:16 PM 53.1 °F - 48.9 °F 86% 30.11 in 10.0 mi SSE 5.8 mph - N/A   Overcast
4:36 PM 52.0 °F - 48.9 °F 89% 30.11 in 9.0 mi SSE 5.8 mph - N/A   Overcast
4:53 PM 52.0 °F - 50.0 °F 93% 30.11 in 9.0 mi SSE 6.9 mph - N/A   Overcast
5:01 PM 52.0 °F - 50.0 °F 93% 30.11 in 9.0 mi SSE 5.8 mph - N/A   Overcast
5:32 PM 52.0 °F - 50.0 °F 93% 30.12 in 9.0 mi South 5.8 mph - N/A   Overcast
5:53 PM 52.0 °F - 50.0 °F 93% 30.11 in 9.0 mi SSE 6.9 mph - N/A   Overcast
6:10 PM 52.0 °F - 50.0 °F 93% 30.10 in 6.0 mi SSE 8.1 mph - N/A   Overcast
6:25 PM 51.1 °F - 50.0 °F 96% 30.12 in 6.0 mi South 6.9 mph - N/A   Overcast
6:34 PM 51.1 °F - 50.0 °F 96% 30.12 in 6.0 mi SSE 5.8 mph - N/A   Overcast
6:53 PM 51.1 °F - 50.0 °F 96% 30.12 in 6.0 mi South 5.8 mph - N/A   Overcast
7:09 PM 51.1 °F - 50.0 °F 96% 30.13 in 6.0 mi South 5.8 mph - N/A   Overcast
7:50 PM 51.8 °F - 50.0 °F 94% 30.14 in 6.0 mi SSE 3.5 mph - N/A   Overcast
7:53 PM 51.1 °F - 48.9 °F 92% 30.14 in 6.0 mi SSE 4.6 mph - N/A   Overcast
8:12 PM 51.1 °F - 48.9 °F 92% 30.14 in 6.0 mi SSE 3.5 mph - N/A   Overcast
8:53 PM 51.1 °F - 50.0 °F 96% 30.17 in 7.0 mi South 4.6 mph - N/A   Overcast
9:09 PM 51.1 °F - 50.0 °F 96% 30.16 in 7.0 mi South 5.8 mph - N/A   Overcast
9:53 PM 52.0 °F - 50.0 °F 93% 30.14 in 7.0 mi South 6.9 mph - N/A   Overcast
10:04 PM 52.0 °F - 50.0 °F 93% 30.14 in 7.0 mi South 5.8 mph - N/A   Overcast
10:51 PM 51.8 °F - 50.0 °F 94% 30.15 in 5.0 mi South 6.9 mph - N/A   Overcast
10:53 PM 52.0 °F - 50.0 °F 93% 30.15 in 5.0 mi South 8.1 mph - N/A   Overcast
11:53 PM 52.0 °F - 51.1 °F 97% 30.15 in 5.0 mi South 4.6 mph - N/A   Overcast